Home > Weather > Vestby > Past weeks

Flag for Norway Past Weather in Vestby, Norway — Yesterday and Last 2 Weeks

Now
66 °F

Scattered clouds.


Feels Like: 66 °F
Forecast: 57 / 70 °F
Wind: 12 mph from South

Location: Rygge

Current Time: Jul 27, 2016 at 5:33:54 PM

Latest Report: Jul 27, 2016 at 4:50 PM


Visibility: N/A

Pressure: 29.92 "Hg

Humidity: 68%

Dew Point: 55 °F

Location of VestbyLocation

Past Weather in Vestby — Graph

°F

Vestby Temperature Yesterday

Maximum temperature yesterday: 68 °F (at 12:50 PM)
Minimum temperature yesterday: 59 °F (at 1:50 AM)
Average temperature yesterday: 65 °F

High & Low Weather Summary for the Past Weeks

 TemperatureHumidityPressure
High79 °F (Jul 21, 2:20 PM)100% (Jul 12, 10:50 PM)30.15 "Hg (Jul 12, 10:50 PM)
Low52 °F (Jul 17, 3:50 AM)46% (Jul 16, 7:20 PM)29.53 "Hg (Jul 12, 4:20 PM)
Average65 °F78%29.95 "Hg
* Reported Jul 12 4:20 PM — Jul 27 4:20 PM, Vestby, Weather by CustomWeather, © 2016

Note: Actual official high and low records may vary slightly from our data, if they occured in-between our weather recording intervals... More about our weather records

Advertising

Vestby Weather History for the Previous 24 Hours

Scroll right to see more
 ConditionsComfort  
Time TempWeatherWind HumidityBarometerVisibility
4:20 PM
Wed, Jul 27
66 °FScattered clouds.13 mph68%29.95 "HgN/A
3:50 PM66 °FScattered clouds.14 mph68%29.95 "HgN/A
3:20 PM66 °FScattered clouds.15 mph68%29.95 "HgN/A
2:50 PM66 °FScattered clouds.14 mph68%29.95 "HgN/A
2:20 PM64 °FScattered clouds.13 mph73%29.95 "HgN/A
1:50 PM64 °FScattered showers. Scattered clouds.15 mph73%29.98 "HgN/A
1:20 PM66 °FScattered clouds.13 mph68%29.98 "HgN/A
12:50 PM64 °FScattered clouds.14 mph68%29.98 "HgN/A
12:20 PM64 °FScattered clouds.14 mph73%29.98 "HgN/A
11:50 AM66 °FPassing clouds.14 mph68%29.98 "HgN/A
11:20 AM64 °FPassing clouds.15 mph68%29.98 "HgN/A
10:50 AM64 °FSunny.15 mph64%29.98 "Hg10 mi
10:20 AM64 °FPassing clouds.12 mph68%29.98 "HgN/A
9:50 AM63 °FPassing clouds.12 mph73%29.98 "HgN/A
9:20 AM63 °FSunny.9 mph73%29.98 "Hg10 mi
8:50 AM63 °FSunny.8 mph73%29.98 "Hg10 mi
8:20 AM61 °FPassing clouds.7 mph77%29.98 "HgN/A
7:50 AM61 °FSunny.5 mph77%29.98 "Hg10 mi
7:20 AM61 °FSunny.6 mph77%29.95 "Hg10 mi
6:50 AM59 °FSunny.5 mph82%29.95 "Hg10 mi
6:20 AM59 °FPassing clouds.5 mph88%29.95 "HgN/A
5:50 AM59 °FOvercast.5 mph82%29.95 "HgN/A
5:20 AM59 °FOvercast.6 mph82%29.95 "HgN/A
4:50 AM59 °FPassing clouds.6 mph82%29.95 "HgN/A
4:20 AM57 °FPassing clouds.6 mph82%29.95 "HgN/A
3:50 AM59 °FPassing clouds.8 mph82%29.95 "HgN/A
3:20 AM59 °FCool.7 mph82%29.95 "HgN/A
2:50 AM59 °FCool.8 mph82%29.95 "HgN/A
2:20 AM59 °FCool.8 mph82%29.95 "HgN/A
1:50 AM59 °FCool.7 mph82%29.95 "HgN/A
1:20 AM59 °FCool.6 mph82%29.95 "HgN/A
12:50 AM61 °FCool.5 mph83%29.95 "HgN/A
12:20 AM61 °FPassing clouds.3 mph83%29.95 "HgN/A
11:50 PM
Tue, Jul 26
61 °FClear.6 mph83%29.95 "Hg10 mi
11:20 PM63 °FClear.5 mph83%29.95 "Hg10 mi
10:50 PM63 °FSunny.6 mph83%29.95 "Hg10 mi
10:20 PM63 °FSunny.6 mph83%29.95 "Hg10 mi
9:50 PM64 °FSunny.9 mph78%29.95 "Hg10 mi
9:20 PM66 °FSunny.10 mph78%29.95 "Hg10 mi
8:50 PM68 °FPassing clouds.9 mph69%29.92 "HgN/A
8:20 PM66 °FSunny.9 mph73%29.92 "Hg10 mi
7:50 PM66 °FPassing clouds.10 mph78%29.92 "HgN/A
7:20 PM64 °FSunny.13 mph78%29.92 "Hg10 mi
6:50 PM68 °FSunny.16 mph69%29.92 "Hg10 mi
6:20 PM68 °FSunny.18 mph69%29.92 "Hg10 mi
5:50 PM68 °FSunny.18 mph69%29.92 "Hg10 mi
5:20 PM68 °FSunny.17 mph73%29.92 "Hg10 mi
Weather by CustomWeather, © 2016

See weather overviewHow to use our weather pages